Date String (YYYY-MM-DD hh:mm:ss) UTC,Instrument flags,absolute air pressure of the measurement (hPa),sample flow rate (lpm),inlet stack bypass flow (lpm),air temperature of the measurement (°C),ambient temperature measured by the external sensor (°C),aerosol sample conditioner tube jacket temperature (°C),OPC LED temperature (°C),internal box temperature (°C),relative humidity of the measurement (%),span deviation,mass concentration of particles derived from Lorenz-Mie calculation of OPC scattering (μg/m³),mass concentration of particles derived from Lorenz-Mie calculation of OPC scattering (μg/m³),mass concentration of particles derived from Lorenz-Mie calculation of OPC scattering (μg/m³)
DateTimeUTC,F1_M11,P_M11,Q1_M11,Q2_M11,T1_M11,T2_M11,T3_M11,T4_M11,T5_M11,U1_M11,ZSPAN_M11,X0_M11,X2_M11,X1_M11
2023-07-24 09:00:00,SystemResetWarning,0834.5,4.99,000.00,029.2,026.2,000.0,037.7,030.6,20.9,0000.0,0007.56,0004.06,0003.77
2023-07-24 09:01:00,SystemResetWarning,0834.5,5.00,000.00,029.2,026.6,000.0,037.7,030.7,20.8,0000.0,0007.59,0004.04,0003.77
2023-07-24 09:02:00,SystemResetWarning,0834.5,5.01,000.00,029.2,026.9,000.0,037.7,030.7,21.0,0000.0,0007.63,0004.05,0003.78
2023-07-24 09:03:00,SystemResetWarning,0834.5,5.00,000.00,029.2,027.2,000.0,037.7,030.8,20.8,0000.0,0007.74,0004.07,0003.79
2023-07-24 09:04:00,SystemResetWarning,0834.7,5.00,000.00,029.2,027.4,000.0,037.7,030.8,20.8,0000.0,0007.51,0004.08,0003.79
2023-07-24 09:05:00,SystemResetWarning,0834.8,5.00,000.00,029.3,027.6,000.0,037.7,030.9,20.6,0000.0,0007.41,0004.08,0003.79
2023-07-24 09:06:00,SystemResetWarning,0834.9,5.00,000.00,029.3,027.8,000.0,037.7,030.9,20.2,0000.0,0007.40,0004.06,0003.79
2023-07-24 09:07:00,SystemResetWarning,0835.1,5.00,000.00,029.3,027.9,000.0,037.8,031.0,20.2,0000.0,0007.51,0004.09,0003.80
2023-07-24 09:08:00,SystemResetWarning,0834.7,4.99,000.00,029.3,028.0,000.0,037.8,031.0,20.3,0000.0,0007.64,0004.14,0003.80
2023-07-24 09:09:00,SystemResetWarning,0834.6,5.00,000.00,029.4,028.1,000.0,037.8,031.1,20.0,0000.0,0007.80,0004.20,0003.79
2023-07-24 09:10:00,SystemResetWarning,0834.5,5.00,000.00,029.4,028.2,000.0,037.8,031.1,20.3,0000.0,0007.77,0004.19,0003.79
2023-07-24 09:11:00,SystemResetWarning,0834.5,5.00,000.00,029.5,028.3,000.0,037.8,031.1,20.3,0000.0,0007.75,0004.18,0003.79
2023-07-24 09:12:00,SystemResetWarning,0834.5,5.00,000.00,029.5,028.4,000.0,037.9,031.2,20.1,0000.0,0007.65,0004.20,0003.80
2023-07-24 09:13:00,SystemResetWarning,0834.5,5.00,000.00,029.5,027.7,000.0,037.8,031.1,20.1,0000.0,0007.70,0004.24,0003.80
2023-07-24 09:14:00,SystemResetWarning,0834.5,5.01,000.00,029.5,025.9,000.0,037.7,030.9,20.2,0000.0,0007.55,0004.21,0003.81
2023-07-24 09:15:00,SystemResetWarning,0834.5,5.01,000.00,029.4,025.4,000.0,037.6,030.7,20.2,0000.0,0007.28,0004.20,0003.81
2023-07-24 09:16:00,SystemResetWarning,0834.5,5.02,000.00,029.3,025.6,000.0,037.7,030.5,20.2,0000.0,0006.40,0004.18,0003.79
2023-07-24 09:17:00,SystemResetWarning,0834.5,4.99,000.00,029.2,026.0,000.0,037.7,030.6,20.4,0000.0,0006.38,0004.19,0003.79
2023-07-24 09:18:00,SystemResetWarning,0834.5,5.00,000.00,029.2,026.4,000.0,037.7,030.6,20.5,0000.0,0006.39,0004.17,0003.78
2023-07-24 09:19:00,SystemResetWarning,0834.5,5.00,000.00,029.2,026.7,000.0,037.7,030.7,20.3,0000.0,0006.30,0004.12,0003.77
2023-07-24 09:20:00,SystemResetWarning,0834.5,5.01,000.00,029.2,027.0,000.0,037.7,030.7,20.3,0000.0,0006.38,0004.08,0003.77
2023-07-24 09:21:00,SystemResetWarning,0834.5,4.99,000.00,029.2,027.3,000.0,037.7,030.8,20.2,0000.0,0007.55,0004.06,0003.77
2023-07-24 09:22:00,SystemResetWarning,0834.5,4.99,000.00,029.3,027.5,000.0,037.7,030.9,20.2,0000.0,0007.52,0004.04,0003.76
2023-07-24 09:23:00,SystemResetWarning,0834.5,4.99,000.00,029.3,027.7,000.0,037.7,030.9,20.1,0000.0,0008.00,0004.03,0003.74
2023-07-24 09:24:00,SystemResetWarning,0834.4,5.00,000.00,029.3,027.8,000.0,037.8,030.9,20.0,0000.0,0008.02,0003.98,0003.73
2023-07-24 09:25:00,SystemResetWarning,0834.4,5.01,000.00,029.3,028.0,000.0,037.8,031.0,20.0,0000.0,0008.05,0003.98,0003.71
2023-07-24 09:26:00,SystemResetWarning,0834.5,5.00,000.00,029.4,028.1,000.0,037.8,031.0,19.9,0000.0,0008.11,0003.98,0003.70
2023-07-24 09:27:00,SystemResetWarning,0834.5,5.01,000.00,029.4,028.2,000.0,037.8,031.1,20.1,0000.0,0008.40,0003.98,0003.70
2023-07-24 09:28:00,SystemResetWarning,0834.5,5.00,000.00,029.4,028.3,000.0,037.8,031.1,20.6,0000.0,0008.48,0004.00,0003.69
2023-07-24 09:29:00,SystemResetWarning,0834.5,5.00,000.00,029.5,028.3,000.0,037.9,031.1,21.4,0000.0,0008.46,0003.99,0003.69
2023-07-24 09:30:00,SystemResetWarning,0834.5,4.99,000.00,029.5,028.4,000.0,037.9,031.2,20.7,0000.0,0008.40,0004.01,0003.68
2023-07-24 09:31:00,SystemResetWarning,0834.5,4.99,000.00,029.5,028.0,000.0,037.9,031.2,20.5,0000.0,0008.44,0004.01,0003.67
2023-07-24 09:32:00,SystemResetWarning,0834.4,5.00,000.00,029.5,026.1,000.0,037.7,031.0,20.6,0000.0,0007.56,0004.02,0003.67
2023-07-24 09:33:00,SystemResetWarning,0834.4,5.00,000.00,029.4,025.4,000.0,037.7,030.8,20.7,0000.0,0007.47,0004.01,0003.68
2023-07-24 09:34:00,SystemResetWarning,0834.4,5.01,000.00,029.3,025.6,000.0,037.7,030.6,21.1,0000.0,0006.88,0004.01,0003.68
2023-07-24 09:35:00,SystemResetWarning,0834.4,5.00,000.00,029.2,025.9,000.0,037.7,030.6,21.0,0000.0,0006.49,0004.01,0003.69
2023-07-24 09:36:00,SystemResetWarning,0834.4,5.00,000.00,029.2,026.3,000.0,037.7,030.6,20.5,0000.0,0006.41,0004.00,0003.69
2023-07-24 09:37:00,SystemResetWarning,0834.4,5.00,000.00,029.2,026.7,000.0,037.7,030.7,20.3,0000.0,0006.52,0004.02,0003.70
2023-07-24 09:38:00,SystemResetWarning,0834.5,5.01,000.00,029.2,027.0,000.0,037.7,030.8,20.9,0000.0,0006.33,0004.05,0003.71
2023-07-24 09:39:00,SystemResetWarning,0834.4,5.00,000.00,029.2,027.2,000.0,037.7,030.8,21.2,0000.0,0006.23,0004.05,0003.72
2023-07-24 09:40:00,SystemResetWarning,0834.5,5.00,000.00,029.3,027.5,000.0,037.7,030.9,20.0,0000.0,0006.16,0004.03,0003.73
2023-07-24 09:41:00,SystemResetWarning,0834.5,5.00,000.00,029.3,027.7,000.0,037.8,030.9,20.0,0000.0,0006.58,0004.01,0003.72
2023-07-24 09:42:00,SystemResetWarning,0834.5,5.00,000.00,029.3,027.8,000.0,037.8,030.9,20.1,0000.0,0006.60,0003.99,0003.72
2023-07-24 09:43:00,SystemResetWarning,0834.5,4.99,000.00,029.3,027.9,000.0,037.8,031.0,20.1,0000.0,0006.91,0004.00,0003.72
2023-07-24 09:44:00,SystemResetWarning,0834.5,5.01,000.00,029.4,028.0,000.0,037.8,031.0,20.7,0000.0,0007.04,0004.02,0003.72
2023-07-24 09:45:00,SystemResetWarning,0834.5,5.00,000.00,029.4,028.1,000.0,037.8,031.1,20.4,0000.0,0007.40,0004.01,0003.71
2023-07-24 09:46:00,SystemResetWarning,0834.5,5.00,000.00,029.4,028.2,000.0,037.8,031.1,20.8,0000.0,0007.61,0004.05,0003.71
2023-07-24 09:47:00,SystemResetWarning,0834.4,5.00,000.00,029.5,028.3,000.0,037.9,031.1,20.2,0000.0,0007.65,0004.06,0003.71
2023-07-24 09:48:00,SystemResetWarning,0834.5,5.00,000.00,029.5,028.3,000.0,037.9,031.2,20.7,0000.0,0007.53,0004.04,0003.70
2023-07-24 09:49:00,SystemResetWarning,0834.4,5.00,000.00,029.5,028.4,000.0,037.9,031.2,20.6,0000.0,0007.49,0004.03,0003.69
2023-07-24 09:50:00,SystemResetWarning,0834.4,4.99,000.00,029.6,028.2,000.0,037.9,031.2,20.6,0000.0,0007.46,0004.03,0003.67
2023-07-24 09:51:00,SystemResetWarning,0834.4,5.00,000.00,029.5,026.4,000.0,037.8,031.0,20.3,0000.0,0007.54,0004.05,0003.67
2023-07-24 09:52:00,SystemResetWarning,0834.4,5.00,000.00,029.4,025.4,000.0,037.7,030.8,19.8,0000.0,0007.86,0004.06,0003.66
2023-07-24 09:53:00,SystemResetWarning,0834.4,5.00,000.00,029.3,025.5,000.0,037.7,030.6,20.4,0000.0,0007.82,0004.09,0003.65
2023-07-24 09:54:00,SystemResetWarning,0834.4,5.02,000.00,029.2,025.8,000.0,037.7,030.5,21.2,0000.0,0007.58,0004.04,0003.64
2023-07-24 09:55:00,SystemResetWarning,0834.4,4.99,000.00,029.2,026.2,000.0,037.7,030.6,21.4,0000.0,0007.53,0004.03,0003.63
2023-07-24 09:56:00,SystemResetWarning,0834.4,5.00,000.00,029.2,026.6,000.0,037.7,030.7,20.8,0000.0,0007.59,0004.04,0003.62
2023-07-24 09:57:00,SystemResetWarning,0834.3,5.00,000.00,029.2,026.9,000.0,037.7,030.7,20.3,0000.0,0007.59,0004.01,0003.61
2023-07-24 09:58:00,SystemResetWarning,0834.4,4.99,000.00,029.2,027.2,000.0,037.7,030.8,20.2,0000.0,0007.61,0004.00,0003.59
2023-07-24 09:59:00,SystemResetWarning,0834.4,5.00,000.00,029.2,027.4,000.0,037.8,030.8,20.2,0000.0,0007.71,0004.03,0003.58
